Lid_Strength_Index
1 1 2 0 0 0 2 4 9 2 -0 8 8 11 9 7 7 6 7 8 9 10 10 11 11 11 9 8 9 11 9 11 13 12 10 9 9 10 11 13 15 13 13 14
1 1 1 1 0 0 2 6 6 1 2 10 10 8 8 7 8 8 8 9 8 8 10 13 11 9 7 8 8 10 10 13 16 14 12 11 12 10 11 10 11 15 16 14
1 1 1 1 1 0 2 6 9 6 5 5 8 9 9 9 6 7 7 8 7 9 10 9 11 10 8 7 7 7 9 12 15 16 13 11 13 12 11 12 14 14 13 12
0 0 0 0 1 0 2 6 8 6 10 9 8 7 8 9 10 7 6 9 9 9 12 11 11 9 8 8 8 9 9 14 13 12 11 10 11 11 11 13 12 14 12 12
0 0 0 0 0 0 4 7 8 7 8 7 8 8 9 10 8 8 9 9 8 8 10 9 10 10 10 10 8 9 9 14 12 14 11 11 13 11 10 11 11 11 11 11
0 0 -0 0 0 0 5 5 4 6 8 9 9 9 9 9 7 7 7 7 8 9 8 7 6 7 7 8 10 11 11 13 15 17 12 13 16 13 11 11 10 10 13 9
0 0 0 0 -0 0 3 4 6 8 10 9 9 9 8 8 7 8 7 6 8 6 5 6 6 7 7 7 8 7 11 12 13 16 15 20 12 8 9 10 9 8 9 8
1 0 -0 -0 -0 -0 2 2 5 7 10 8 9 9 9 8 7 8 8 7 6 6 8 10 11 12 11 11 9 8 8 11 14 17 17 13 11 9 10 11 11 8 8 7
1 1 -0 -1 -1 -1 1 2 1 5 9 10 8 9 8 10 9 10 10 8 6 6 9 11 15 16 12 13 12 8 8 9 13 14 18 19 11 8 6 7 14 7 8 8
1 1 1 -1 -1 -1 1 2 1 4 9 7 7 9 9 7 8 10 10 10 10 7 10 13 14 15 11 15 15 13 13 13 15 15 16 14 9 7 6 15 13 9 9 8
2 1 0 -0 -1 -1 -0 3 1 4 7 6 6 6 7 7 7 10 10 9 10 10 12 13 13 13 12 13 12 12 13 14 15 14 16 18 8 8 12 9 8 8 8 8
1 1 -0 0 -1 -1 -1 3 1 1 4 6 4 4 4 4 5 6 8 8 8 8 10 10 9 12 10 12 15 10 13 11 12 12 13 8 7 8 6 7 8 8 8 7
2 1 -0 -0 -1 -1 -0 3 2 2 6 7 6 7 4 3 3 3 8 7 6 7 5 8 9 12 9 13 12 11 9 8 11 10 9 8 7 6 6 6 7 6 6 6
1 0 -0 0 -1 -1 -1 3 1 3 5 9 8 5 5 3 3 3 3 5 4 5 5 8 10 11 8 11 10 11 9 9 10 10 9 8 7 6 5 5 5 5 5 5
1 0 0 1 -1 -1 -0 2 1 1 4 8 8 7 4 4 4 4 4 4 5 7 9 10 11 8 9 9 9 11 9 10 11 11 8 8 8 6 5 5 6 5 5 6
0 -0 0 1 -1 -1 3 7 2 1 2 7 10 6 7 5 5 5 5 5 6 7 8 9 8 6 8 11 12 9 8 6 6 8 6 6 6 5 4 5 5 5 6 6
-0 1 0 1 -0 1 4 6 3 0 2 7 10 9 8 6 5 5 6 5 6 7 8 9 8 8 7 10 13 10 8 7 7 6 6 7 6 7 5 6 6 7 8 8
-1 -0 0 1 -0 0 4 2 0 1 5 6 10 11 10 6 8 9 6 8 7 7 8 8 9 8 8 12 10 9 8 7 7 7 6 6 6 6 7 7 8 9 9 9
-1 0 1 1 3 7 6 1 -0 2 5 10 10 12 12 7 8 7 8 7 11 7 10 10 9 11 13 11 10 9 8 9 9 10 10 9 9 8 8 8 8 9 8 10
0 3 5 8 6 1 1 5 7 7 8 8 10 8 12 8 8 9 9 8 10 12 10 8 10 12 9 9 9 16 16 16 16 15 12 12 12 11 10 10 9 8 9 10
5 8 8 5 1 5 7 10 10 10 11 9 10 8 11 7 10 10 8 10 9 13 11 11 12 13 10 18 18 19 19 18 18 18 18 17 16 16 15 14 10 10 11 13
5 6 5 6 8 9 12 14 12 12 13 11 10 10 7 8 7 8 10 11 11 15 10 12 15 12 21 23 23 22 22 22 22 20 20 19 19 19 19 17 14 14 14 16
5 7 9 10 12 14 15 17 16 15 13 11 10 11 9 9 8 9 11 13 14 11 14 15 13 22 24 26 25 25 24 23 23 22 21 21 22 23 22 20 20 18 19 19
9 11 15 13 15 14 14 12 13 16 12 11 9 11 10 9 10 10 13 11 12 15 16 16 17 26 27 26 25 26 26 26 25 24 23 23 24 24 24 23 21 21 22 22
14 11 16 17 21 22 22 20 18 21 17 12 12 11 9 10 11 10 11 15 16 14 14 19 24 27 27 27 27 27 26 26 26 25 25 25 25 26 26 25 24 24 25 25
20 24 19 20 18 21 20 20 22 21 18 16 12 12 12 12 11 12 13 14 15 14 24 25 25 27 27 27 27 27 26 26 26 26 26 26 27 27 28 28 28 26 26 26
22 26 26 24 23 24 26 23 23 21 18 14 13 16 15 13 14 14 16 14 24 27 26 26 26 27 28 28 27 27 27 27 27 26 26 26 26 26 28 30 29 28 28 28